Location: Podia
(1.5569°N, 32.3469°E)
Time: 12:35:57
(UTC+00:00)

Cosmos 2346 Rocket - Pass Details

Date: 01 June 2020
Orbit: 937 x 979 km, 82.9° (Epoch: 05 July)

Event Time Altitude Azimuth Distance (km) Brightness Sun altitude
Rises 17:02:41 0° 184° (S) 3,594 7.3 -16.5°
Reaches altitude 10° 17:05:10 10° 185° (S) 2,649 6.6 -17.1°
Maximum altitude 17:11:13 85° 271° (W) 947 4.4 -18.4°
Drops below altitude 10° 17:17:17 10° 2° (N) 2,658 7.1 -19.8°
Sets 17:19:47 0° 2° (N) 3,606 7.8 -20.4°
